Commit Graph

465 Commits

Author SHA1 Message Date
eggy d1535d4acb math: Fix physics Cartesian vector link 2021-05-25 17:53:55 -04:00
eggy 8fe2c6f86b math: Add component operations and rearrange vector headers 2021-05-19 15:48:58 -04:00
eggy db0dddd34c math: Use Wikipedia torque diagram 2021-05-12 17:51:19 -04:00
eggy 41674c4d74 math: Add torque and applications 2021-05-12 17:11:45 -04:00
eggy 03888187e4 math: Add cross product 2021-05-11 17:42:50 -04:00
eggy e6e62e3eee math: Add vector projections 2021-05-11 12:08:06 -04:00
eggy dc85bc99cb hist: Remove Mao unfilled policies 2021-05-09 19:58:01 -04:00
eggy b14cb35359 hist: Move Mao statues to second paragraph 2021-05-09 19:47:42 -04:00
eggy bcd8f428c5 hist: Finish consolidation of power in China 2021-05-09 19:46:10 -04:00
eggy cd9315ae38 hist: Add use of legal power and force in consolidating power in China 2021-05-09 18:00:03 -04:00
eggy 9a5646491b hist: Correct Treaty of Friendship details 2021-05-05 21:11:38 -04:00
eggy bde8696699 hist: newline between title and graph 2021-05-05 21:09:39 -04:00
eggy b88b3451f4 hist: Add future headings and rename policies to fit header scheme 2021-05-05 19:19:29 -04:00
eggy 632ffe356d hist: Use word revisionism over revisionist 2021-05-05 18:58:40 -04:00
eggy 5c185da40c hist: Add Mao's foreign policy 2021-05-05 18:39:55 -04:00
eggy 4ec56ede38 phys: Mention de broglie 2021-05-05 09:11:05 -04:00
eggy 10cd91ca52 phys: fix inertial typo 2021-05-04 20:11:21 -04:00
eggy 918feb9087 phys: correct matter energy equivalence formula 2021-05-04 20:09:48 -04:00
eggy f18b7903cc home: add period 2021-05-01 20:59:50 -04:00
eggy 1b8864046e math: add cp4 2021-04-30 14:17:39 -04:00
eggy eb34960f53 phys: uncorrect planck's constant 2021-04-30 09:36:39 -04:00
eggy bbb0103178 phys: correct alternate forms of planck's constant 2021-04-30 09:34:52 -04:00
eggy 3b4ed63305 math: add constant motion in 2d space vector application 2021-04-29 16:07:06 -04:00
eggy 1148bd4e6c phys: add relative kinetic energy 2021-04-29 16:04:24 -04:00
eggy 2277a83244 phys: correct incorrect equations in dilation/contraction 2021-04-29 11:38:18 -04:00
eggy ecf0655254 phys: remove special header for simultaneity 2021-04-29 11:31:30 -04:00
eggy 8eb82e5433 phys: attempt time dilation and synchroneity 2021-04-28 15:37:55 -04:00
eggy 7c2e50e183 math: add vector line intersections 2021-04-28 15:17:13 -04:00
eggy 4357bae57f math: add vector equations for straight lines 2021-04-28 12:33:25 -04:00
eggy ffc69c53e6 math: add dot product 2021-04-25 12:59:26 -04:00
eggy 44d2a16945 math: add colinear points and vevctor details 2021-04-25 12:30:28 -04:00
eggy 5e28db2636 hist: revert hi everyone 2021-04-23 10:05:29 -04:00
eggy 06adde07cd hist: hi everyone 2021-04-22 10:16:16 -04:00
eggy 7d0800c4a2 math: add vector operations 2021-04-21 16:08:07 -04:00
eggy ca00073a5e math: fix latex error 2021-04-21 12:54:32 -04:00
eggy 474c1fecbd math: fix latex formatting 2021-04-21 12:51:06 -04:00
eggy 5b1b99b8ec phys: add matter waves 2021-04-20 17:28:41 -04:00
eggy 0ceb05555d math: add vectors 2021-04-20 17:22:54 -04:00
eggy 7401193a2d hist: add istorical concepts 2021-04-20 17:02:01 -04:00
eggy 269404b180 hist: patch up lens 2021-04-20 16:54:56 -04:00
eggy 7e8e948148 hist: correct cherry picking typo 2021-04-20 16:50:48 -04:00
eggy 6fc37de681 home: add email for contact 2021-04-20 16:08:23 -04:00
eggy af417e7b5c phys: correct planck's constant in eVs 2021-04-20 09:05:52 -04:00
eggy 86cb310b89 fren: add textbook 2021-04-18 21:15:59 -04:00
eggy 02ec2ac7d7 tok: fix example outside of block 2021-04-18 12:25:22 -04:00
eggy 35124b78d6 phys: add photoelectric effect 2021-04-14 14:36:57 -04:00
eggy 2654d33b6a phys: add ghg resonance 2021-04-14 14:06:28 -04:00
eggy 28e4849ff6 math: fix missing bracket 2021-04-13 16:34:16 -04:00
eggy d3a234db45 fren: taunt and be bitter 2021-04-13 16:32:59 -04:00
eggy 84a2aabdee gen: remove email link just in case 2021-04-13 16:25:22 -04:00